Regional Weather Roundup
Issued by NWS Charleston, SC

Current Version | Previous Version | Graphics & Text | Print | Product List | Glossary On
Versions: 1 2 3 4 5 6 7 8 9 10 11 12 13 14 15 16 17 18 19 20 21 22 23 24 25 26 27 28 29 30 31 32 33 34 35 36 37 38 39 40 41 42 43 44 45 46 47 48 49 50
000
ASUS42 KCHS 250810
RWRCHS

REGIONAL WEATHER ROUNDUP
NATIONAL WEATHER SERVICE CHARLESTON SC
300 AM EST SUN JAN 25 2015

NOTE: "FAIR" INDICATES FEW OR NO CLOUDS BELOW 12,000 FEET WITH NO
SIGNIFICANT WEATHER AND/OR OBSTRUCTIONS TO VISIBILITY.

NOT ALL STATIONS ARE QUALITY CONTROLLED BY THE NATIONAL
WEATHER SERVICE. USE DATA WITH CAUTION...ESPECIALLY
DEWPOINT OBSERVATIONS.

SCZ027-030-031-034>040-042>050-250900-
...SOUTHEAST SOUTH CAROLINA...

CITY           SKY/WX    TMP DP  RH WIND       PRES   REMARKS
N CHARLESTON   CLEAR     39  31  72 W5        29.95R WCI  36
WATERFRONT PRK   N/A     45 N/A N/A W7          N/A
MOUNT PLEASANT LGT RAIN N/A N/A N/A CALM      29.94R
PINOPOLIS      NOT AVBL
MONCKS CORNER  FAIR      37  32  81 CALM      29.93S
SUMMERVILLE    FAIR      34  34 100 SW3       29.95R
BEAUFORT MCAS  CLEAR     42  30  62 W8        29.97R
BEAUFORT ARPT  FAIR      43  32  65 W10       29.96S
HILTON HEAD IS CLEAR     45  32  61 SW10      29.98S
WALTERBORO     NOT AVBL
ALLENDALE      FAIR      43  28  56 VRB6      29.95R

...SOUTHERN MIDLANDS AND PEE DEE...

CITY           SKY/WX    TMP DP  RH WIND       PRES   REMARKS
GEORGETOWN     NOT AVBL
KINGSTREE      NOT AVBL
ORANGEBURG     CLEAR     38  28  67 W6        29.92F WCI  33
BARNWELL         N/A     36  32  87 CALM      29.95R
AIKEN          FAIR      37  30  75 W6        29.96R WCI  33
MANNING        NOT AVBL
COLUMBIA       CLEAR     41  28  60 NW6       29.92R
SUMTER         CLEAR     37  28  70 W8        29.90R WCI  30
FLORENCE       CLEAR     35  30  82 W5        29.90S WCI  31
MYRTLE BEACH   CLEAR     41  32  70 W10       29.93R
N MYRTLE BEACH CLEAR     41  33  73 W8        29.90R

$$

GAZ063-065-086>088-099>101-113>116-118-119-134>141-150-250900-
...SOUTHEAST GEORGIA...

CITY           SKY/WX    TMP DP  RH WIND       PRES   REMARKS
SAVANNAH ARPT  CLEAR     37  31  78 W7        29.99R WCI  32
HUNTER AAF     CLEAR     36  32  84 W6        29.97R WCI  31
FORT STEWART   CLEAR     41  32  70 W6        29.99R
STATESBORO     CLEAR     38  32  77 W7        29.99R WCI  33
SYLVANIA       SUNNY     40  32  74 W5        29.99R WCI  36
CLAXTON        FAIR      34  34 100 W3        30.00R

...CSRA...CENTRAL AND FAR SOUTHEAST GEORGIA...

CITY           SKY/WX    TMP DP  RH WIND       PRES   REMARKS
THOMSON        CLEAR     40  32  74 W6        29.99S WCI  36
AUGUSTA-BUSH   CLEAR     42  28  57 NW8       29.95S
AUGUSTA-DANIEL CLEAR     43  28  55 W10G20    29.94S
SWAINSBORO     FAIR      39  27  60 W5        30.00R WCI  36
VIDALIA        CLEAR     39  32  75 CALM      30.00S
EASTMAN        FAIR      35  35  98 CALM      30.04R
HAZLEHURST     FAIR      39  35  85 W3        30.00S
ALMA           CLEAR     38  32  79 SW5       30.02R WCI  34
WAYCROSS       CLEAR     40  37  90 W6        30.03S WCI  36
JESUP          FAIR      36  34  93 CALM      30.02R
BAXLEY         FAIR      41  34  75 CALM      30.01R
BRUNSWICK      CLEAR     43  34  70 W6        30.03R
SAINT SIMONS   CLEAR     43  35  73 W9        30.02R

$$

SCZ027-028-034-036>038-045-046-048>050-GAZ119-141-250900-
...LAKE AND SUPPLEMENTAL COASTAL OBSERVATIONS...

STATION/POSITION TIME  TEMP    WIND        PRES    WAVE   SWELL
                       AIR SEA DIR/SP/G            HT/PER HT/PER/DIR
                 (UTC) (F)     (DEG/KT/KT) (MB)    (FT/S) (FT/S/D)
UPR LAKE MARION  NOT AVBL
WINYAH BAY       0700   43     270/  6     1011.0S
LAKE MURRAY      0700   41     290/  4/ 15 1012.5R
ACE BASIN NERRS  NOT AVBL
FORT PULASKI     0800   45 54  280/ 14/ 16 1015.2F
SAPELO ISLAND    0700   45     250/  5     1015.0S

$$

ANZ835-935-AMZ111-154-330-350-352-354-370-450-454-472-250900-
...C-MAN AND BUOY OBSERVATIONS...

STATION/POSITION TIME  TEMP    WIND        PRES    WAVE   SWELL
                       AIR SEA DIR/SP/G            HT/PER HT/PER/DIR
                 (UTC) (F)     (DEG/KT/KT) (MB)    (FT/S) (FT/S/D)
BUOY 41004       0800   53 69  300/ 19/ 25 1012.7R   7/ 7   2/10
BUOY 41008       0800   49 55  300/ 17/ 21 1015.2R   3/ 4
FOLLY BEACH CMAN 0700   44     290/  7/ 10 1013.9R
CAPERS NEARSHORE 0700   47     300/ 17/ 19   N/A
FRIPP NEARSHORE  0700   49     310/ 19/ 23   N/A


STATION/POSITION TIME  TEMP    WIND        PRES    WAVE   SWELL
                       AIR SEA DIR/SP/G            HT/PER HT/PER/DIR
                 (UTC) (F)     (DEG/KT/KT) (MB)    (FT/S) (FT/S/D)
5E ST. MARYS GA  0800      58                N/A     2/10
FRYING PAN BUOY  0800   53 66  300/ 17/ 21 1012.1R   7/10   5/160/10
BUOY 41025       0800   50 71  300/ 23/ 29 1009.2R   8/11   5/170/11
CAPE LOOKOUT NC  0700   46     300/ 14/ 18 1010.5R
BUOY 41002       0739   63 72  300/ 21/ 27 1011.4R  12/11   8/230/11
BUOY 41010       0800   64 77  310/ 12/ 19 1014.7R   8/ 8
ST AUGUSTINE FL  0800   44     310/  8/  9 1016.9R


$$



USA.gov is the U.S. government's official web portal to all federal, state and local government web resources and services.